DC3YC-13 Weather Reports


time (UTC)temp
F
wind
direction
speed
knots
gust
knots
rain 1hr
in
rain 24hr
in
rain mn
in
humidity
%
barometer
mb
20260505204633 52 340 0.0 0.0 0.00 0.00 0.16 100 1006.0
20260505203633 52 340 0.0 0.0 0.00 0.00 0.16 100 1006.0
20260505202633 52 340 0.0 0.0 0.00 0.00 0.16 100 1006.0
20260505201633 52 340 0.0 0.0 0.00 0.00 0.16 100 1006.0
20260505200633 52 340 0.0 0.0 0.00 0.00 0.16 100 1004.9
20260505195633 52 335 0.0 0.0 0.00 0.00 0.16 100 1004.9
20260505194633 52 335 0.0 0.0 0.00 0.00 0.16 100 1004.9
20260505193633 54 335 0.0 0.0 0.00 0.00 0.16 100 1006.0
20260505192633 54 335 0.0 0.0 0.00 0.00 0.16 100 1006.0
20260505191633 54 335 0.0 0.0 0.00 0.00 0.16 100 1006.0
20260505190633 54 335 0.0 0.0 0.00 0.00 0.16 100 1004.9
20260505185633 54 335 0.0 0.0 0.00 0.00 0.16 100 1004.9
20260505184633 55 340 0.0 0.0 0.00 0.00 0.16 99 1004.9
20260505183633 55 335 0.0 0.0 0.00 0.00 0.16 99 1004.9
20260505182633 55 335 0.0 0.0 0.00 0.00 0.16 99 1004.9
20260505181633 55 340 0.0 0.0 0.00 0.00 0.16 99 1004.9
20260505180633 55 340 0.0 0.0 0.00 0.00 0.16 99 1004.9
20260505175633 55 340 0.0 0.0 0.00 0.00 0.16 99 1004.8
20260505174633 55 340 0.0 0.0 0.00 0.00 0.16 99 1004.8
20260505173633 55 340 2.6 0.0 0.00 0.00 0.16 99 1004.8
20260505172633 57 340 1.7 0.0 0.07 0.00 0.16 99 1004.8
20260505171633 57 335 0.0 0.0 0.07 0.00 0.16 99 1004.8
20260505170633 57 335 4.3 0.0 0.07 0.00 0.16 99 1004.8
20260505165633 57 335 0.9 0.0 0.07 0.00 0.16 99 1003.8
20260505164633 57 340 1.7 0.0 0.07 0.00 0.16 99 1004.8
20260505163633 57 340 3.5 0.0 0.07 0.00 0.16 99 1004.8
20260505162633 57 340 0.9 0.0 0.09 0.00 0.16 99 1004.8
20260505161633 57 340 2.6 0.0 0.09 0.00 0.14 98 1004.8
20260505160633 57 340 5.2 0.0 0.09 0.00 0.13 98 1004.8
20260505152633 59 350 9.6 0.0 0.00 0.00 0.07 94 1004.8
20260505151633 61 355 9.6 0.0 0.00 0.00 0.06 88 1004.8
20260505150633 68 355 3.5 0.0 0.00 0.00 0.00 64 1003.8
20260505140633 73 355 1.7 0.0 0.00 0.00 0.00 43 1002.7
20260505124633 79 355 7.0 0.0 0.00 0.00 0.00 37 1003.8
20260505123633 79 355 5.2 0.0 0.00 0.00 0.00 39 1003.8
20260505122633 77 355 0.0 0.0 0.00 0.00 0.00 40 1003.8
20260505121633 75 355 1.7 0.0 0.00 0.00 0.00 40 1003.8
20260505120633 77 355 4.3 0.0 0.00 0.00 0.00 39 1003.8
20260505115633 79 355 6.1 0.0 0.00 0.00 0.00 37 1003.8
20260505114633 79 355 7.8 0.0 0.00 0.00 0.00 37 1003.8
20260505113633 81 350 3.5 0.0 0.00 0.00 0.00 36 1004.8
20260505112633 79 350 1.7 0.0 0.00 0.00 0.00 38 1004.8
20260505111633 79 355 0.9 0.0 0.00 0.00 0.00 36 1004.8
20260505110633 79 355 7.0 0.0 0.00 0.00 0.00 37 1004.9
20260505101633 79 355 5.2 0.0 0.00 0.00 0.00 43 1004.9
20260505100633 77 350 6.1 0.0 0.00 0.00 0.00 46 1004.9
20260505095633 75 355 5.2 0.0 0.00 0.00 0.00 43 1004.9
20260505094633 73 355 6.1 0.0 0.00 0.00 0.00 48 1004.9
20260505093633 75 355 3.5 0.0 0.00 0.00 0.00 47 1004.9
20260505092633 75 355 7.0 0.0 0.00 0.00 0.00 47 1006.0
20260505091633 75 355 5.2 0.0 0.00 0.00 0.00 45 1006.0
20260505090633 75 350 4.3 0.0 0.00 0.00 0.00 50 1006.0
20260505085633 73 355 0.9 0.0 0.00 0.00 0.00 51 1006.0
20260505084633 73 355 5.2 0.0 0.00 0.00 0.00 54 1006.0
20260505083633 72 355 3.5 0.0 0.00 0.00 0.00 57 1006.0
20260505082633 70 355 4.3 0.0 0.00 0.00 0.00 59 1006.0
20260505081633 70 355 4.3 0.0 0.00 0.00 0.00 60 1006.0
20260505080633 70 355 5.2 0.0 0.00 0.00 0.00 61 1006.0
20260505075633 68 355 3.5 0.0 0.00 0.00 0.00 64 1006.0
20260505074633 66 355 3.5 0.0 0.00 0.00 0.00 67 1007.0
20260505073633 64 355 1.7 0.0 0.00 0.00 0.00 69 1007.0
20260505072633 64 355 0.0 0.0 0.00 0.00 0.00 71 1007.0
20260505071633 63 355 5.2 0.0 0.00 0.00 0.00 73 1003.9
20260505070633 63 355 1.7 0.0 0.00 0.00 0.00 75 1007.0
20260505065633 61 355 0.9 0.0 0.00 0.00 0.00 77 1007.0
20260505064633 61 355 0.9 0.0 0.00 0.00 0.00 78 1007.0
20260505063633 59 355 3.5 0.0 0.00 0.00 0.00 79 1007.0
20260505062633 59 355 0.0 0.0 0.00 0.00 0.00 81 1007.0
20260505061633 57 0 0.0 0.0 0.00 0.00 0.00 82 1007.0
20260505060633 57 355 0.0 0.0 0.00 0.00 0.00 85 1007.0
20260505055633 55 355 0.0 0.0 0.00 0.00 0.00 89 1007.0
20260505054633 55 355 0.0 0.0 0.00 0.00 0.00 90 1007.0
20260505053633 55 355 0.0 0.0 0.00 0.00 0.00 89 1007.0
20260505052633 55 355 0.0 0.0 0.00 0.00 0.00 89 1007.0
20260505051633 55 355 0.0 0.0 0.00 0.00 0.00 89 1007.0
20260505050633 54 355 0.0 0.0 0.00 0.00 0.00 90 1007.0
20260505041633 52 355 0.0 0.0 0.00 0.00 0.00 92 1007.0
20260505040633 52 355 0.0 0.0 0.00 0.00 0.00 92 1007.0
20260505035633 52 355 0.0 0.0 0.00 0.00 0.00 90 1007.0
20260505034633 54 355 0.0 0.0 0.00 0.00 0.00 90 1007.0
20260505033633 54 355 0.0 0.0 0.00 0.00 0.00 89 1007.0
20260505032633 54 355 0.0 0.0 0.00 0.00 0.00 87 1007.0
20260505031633 55 355 0.0 0.0 0.00 0.00 0.00 86 1007.0
20260505030633 55 355 0.0 0.0 0.00 0.00 0.00 86 1007.0
20260505025633 55 355 0.0 0.0 0.00 0.00 0.00 85 1007.0
20260505024633 55 355 0.0 0.0 0.00 0.00 0.00 84 1007.9
20260505023633 55 355 0.9 0.0 0.00 0.00 0.00 84 1007.9
20260505022633 55 355 0.0 0.0 0.00 0.00 0.00 86 1007.9
20260505021633 55 355 0.9 0.0 0.00 0.00 0.00 85 1007.9
20260505020633 55 355 0.0 0.0 0.00 0.00 0.00 84 1007.9
20260505015633 57 355 1.7 0.0 0.00 0.00 0.00 82 1007.9
20260505014633 57 355 1.7 0.0 0.00 0.00 0.00 80 1007.9
20260505013633 57 355 0.0 0.0 0.00 0.00 0.00 80 1007.9
20260505012633 59 355 0.0 0.0 0.00 0.00 0.00 79 1007.9
20260505011633 59 355 0.0 0.0 0.00 0.00 0.00 79 1007.9
20260505010632 59 355 0.0 0.0 0.00 0.00 0.00 81 1007.9
20260505005633 59 355 0.0 0.0 0.00 0.00 0.00 81 1007.9
20260505004633 59 355 0.0 0.0 0.00 0.00 0.00 82 1007.9
20260505003633 59 355 0.9 0.0 0.00 0.00 0.00 82 1009.0
20260505002632 59 355 0.0 0.0 0.00 0.00 0.00 84 1009.0
20260505001633 59 355 0.0 0.0 0.00 0.00 0.00 83 1009.0
20260505000632 59 355 0.0 0.0 0.00 0.00 0.00 82 1009.0
20260504235632 59 355 0.0 0.0 0.00 0.00 0.00 79 1009.0
20260504234633 61 355 0.0 0.0 0.00 0.00 0.00 74 1009.0
20260504233632 61 355 0.0 0.0 0.00 0.00 0.00 71 1009.0
20260504232633 61 355 0.0 0.0 0.00 0.00 0.00 69 1009.0
20260504231632 61 355 0.0 0.0 0.00 0.00 0.00 69 1009.0
20260504230632 61 355 0.0 0.0 0.00 0.00 0.00 70 1009.0
20260504225632 61 355 0.0 0.0 0.00 0.00 0.00 69 1009.0
20260504224633 61 355 0.0 0.0 0.00 0.00 0.00 68 1009.0
20260504223632 61 355 0.0 0.0 0.00 0.00 0.00 69 1009.0
20260504222632 61 355 0.0 0.0 0.00 0.00 0.00 68 1009.0
20260504221632 61 355 0.0 0.0 0.00 0.00 0.00 68 1010.0
20260504220632 61 355 0.0 0.0 0.00 0.00 0.00 67 1009.0
20260504215632 63 355 0.0 0.0 0.00 0.00 0.00 66 1009.0
20260504214632 63 355 0.0 0.0 0.00 0.00 0.00 65 1009.0
20260504213632 63 355 0.0 0.0 0.00 0.00 0.00 63 1010.0
20260504212632 63 355 3.5 0.0 0.00 0.00 0.00 62 1010.0
20260504211632 63 355 0.9 0.0 0.00 0.00 0.00 63 1010.0
20260504210632 63 355 5.2 0.0 0.00 0.00 0.00 63 1010.0
20260504205632 63 355 1.7 0.0 0.00 0.00 0.00 65 1010.0